DateTimeUTC,F1_A11,F1_S11,BsB_S11,BsG_S11,BsR_S11,BbsB_S11,BbsG_S11,BbsR_S11,BaB_A11,BaG_A11,BaR_A11,Tu_S11,T_S11,Uu_S11,U_S11,P_S11,T1_A11
2021-06-22T01:00:00Z,00000200,20000000,,,,,,,0000.12,0000.14,-000.19,18.0,24.9,02.9,01.9,0669.1,31.1
2021-06-22T01:01:00Z,00000200,20000000,,,,,,,-000.01,0000.10,-000.04,18.0,24.9,02.9,01.9,0669.1,31.1
2021-06-22T01:02:00Z,00000200,20000000,,,,,,,-000.08,-000.11,0000.23,18.0,24.9,02.9,01.9,0669.1,31.1
2021-06-22T01:03:00Z,00000200,60000000,,,,,,,0000.13,0000.29,0000.08,18.0,25.0,02.9,01.9,0669.1,31.1
2021-06-22T01:04:00Z,00000200,40000000,0001.79,0000.69,0000.14,0000.57,0000.24,0000.26,0000.39,-000.05,0000.35,18.4,24.9,02.9,01.9,0670.1,31.1
2021-06-22T01:05:00Z,00000200,00000000,0001.18,0000.71,0000.42,0000.54,-000.04,0000.32,0000.50,0000.26,0000.35,18.4,24.9,02.8,01.9,0670.2,31.1
2021-06-22T01:06:00Z,00000200,00000000,0001.47,0000.62,0000.46,0000.59,0000.13,0000.41,0000.42,0000.98,0000.28,18.4,24.8,02.8,01.9,0670.2,31.1
2021-06-22T01:07:00Z,00000200,00000000,0001.23,0000.60,0000.15,0000.53,0000.51,-000.00,0000.35,0000.60,0000.68,18.3,24.8,02.9,01.9,0670.2,31.1
2021-06-22T01:08:00Z,00000200,00000000,0001.63,0000.43,0000.16,0000.41,0000.18,0000.21,0000.23,-000.04,0000.14,18.3,24.8,02.7,01.8,0670.2,31.1
2021-06-22T01:09:00Z,00000200,00000000,0001.36,0000.63,0000.73,0000.88,0000.29,0000.38,0000.94,0000.53,0000.47,18.2,24.7,02.8,01.9,0670.2,31.1
2021-06-22T01:10:00Z,00000200,00000000,0001.03,0000.69,0000.48,0000.12,0000.25,0000.49,0000.40,0000.64,0000.44,18.2,24.7,02.8,01.9,0670.2,31.0
2021-06-22T01:11:00Z,00000200,00000000,0000.53,0000.66,0000.64,0000.42,0000.39,-000.07,0000.19,0000.24,0000.18,18.2,24.7,02.9,01.9,0670.2,31.0
2021-06-22T01:12:00Z,00000200,00000000,0001.57,0001.10,0000.68,0000.13,0000.11,0000.24,0000.89,0000.39,0000.29,18.1,24.6,02.8,01.9,0670.2,31.0
2021-06-22T01:13:00Z,00000200,00000000,0001.38,0000.61,0000.36,0000.33,0000.14,0000.06,-000.05,0000.13,0000.16,18.1,24.6,02.8,01.8,0670.2,31.0
2021-06-22T01:14:00Z,00000200,00000000,0001.76,0000.35,0000.45,0000.53,0000.55,0000.47,0000.73,0000.68,0000.74,18.1,24.6,02.8,01.9,0670.2,31.0
2021-06-22T01:15:00Z,00000200,00000000,0000.88,0000.66,0000.32,0000.61,0000.36,0000.38,0000.76,0000.51,0000.16,18.2,24.6,02.8,01.9,0670.2,31.1
2021-06-22T01:16:00Z,00000200,00000000,0000.75,0000.78,0000.17,0000.47,0000.15,-000.07,-000.03,0000.34,0000.40,18.3,24.7,02.8,01.9,0670.2,31.1
2021-06-22T01:17:00Z,00000200,00000000,0001.40,0000.72,0000.51,0000.48,0000.29,0000.25,0000.49,0000.42,0000.24,18.3,24.7,02.8,01.9,0670.2,31.1
2021-06-22T01:18:00Z,00000200,00000000,0002.24,0000.72,0000.33,0000.25,0000.25,0000.40,0000.45,0000.52,0000.19,18.4,24.7,02.6,01.8,0670.2,31.1
2021-06-22T01:19:00Z,00000200,00000000,0001.05,0000.68,0000.23,0000.50,0000.34,-000.12,0000.32,0000.07,0000.11,18.3,24.8,02.7,01.8,0670.2,31.1
2021-06-22T01:20:00Z,00000200,00000000,0001.72,0000.66,0000.48,0000.88,0000.12,0000.02,0000.67,0000.47,0000.59,18.3,24.7,02.6,01.8,0670.2,31.1
2021-06-22T01:21:00Z,00000200,00000000,0001.33,0000.47,0000.38,0000.39,0000.46,0000.06,0000.40,0000.45,0000.46,18.2,24.7,02.5,01.7,0670.2,31.1
2021-06-22T01:22:00Z,00000200,00000000,0001.17,0000.70,0000.51,0000.47,0000.07,0000.31,0000.50,0000.37,0000.56,18.2,24.7,02.6,01.7,0670.2,31.1
2021-06-22T01:23:00Z,00000200,00000000,0001.45,0000.47,0000.33,0000.65,0000.21,-000.14,0000.34,0000.90,0000.52,18.2,24.6,02.6,01.8,0670.2,31.0
2021-06-22T01:24:00Z,00000200,00000000,0002.00,0000.87,0000.30,0000.26,0000.24,0000.30,0000.55,0000.39,0000.18,18.1,24.6,02.6,01.7,0670.1,31.0
2021-06-22T01:25:00Z,00000200,00000000,0001.45,0000.65,0000.39,0000.53,0000.33,0000.15,0000.62,0000.22,0000.20,18.1,24.6,02.7,01.8,0670.1,31.0
2021-06-22T01:26:00Z,00000200,00000000,0001.38,0000.53,0000.26,0000.34,0000.23,0000.30,0000.58,0000.57,0000.19,18.0,24.6,02.7,01.8,0670.1,31.0
2021-06-22T01:27:00Z,00000200,00000000,0001.37,0000.72,0000.42,0000.33,0000.08,0000.35,0000.35,-000.04,0000.52,18.0,24.5,02.7,01.8,0670.1,31.0
2021-06-22T01:28:00Z,00000200,00000000,0001.54,0000.81,0000.67,0000.17,0000.18,-000.02,0000.21,0000.72,0000.11,18.0,24.5,02.7,01.8,0670.1,31.0
2021-06-22T01:29:00Z,00000200,00000000,0001.12,0000.66,0000.53,0000.22,0000.03,0000.31,0000.68,0000.32,0000.72,18.0,24.5,02.6,01.8,0670.1,31.1
2021-06-22T01:30:00Z,00000200,00000000,0001.15,0000.84,0000.32,0000.37,0000.18,0000.28,0000.66,0000.82,0000.38,18.0,24.5,02.7,01.8,0670.2,31.0
2021-06-22T01:31:00Z,00000200,00000000,0001.84,0000.96,0000.24,0000.45,0000.25,0000.23,0000.77,0000.42,0000.49,18.1,24.5,02.7,01.8,0670.2,31.0
2021-06-22T01:32:00Z,00000200,00000000,0001.42,0000.72,0000.17,0000.76,-000.04,-000.03,0000.22,0000.62,0000.11,18.2,24.6,02.7,01.8,0670.2,31.1
2021-06-22T01:33:00Z,00000200,00000000,0001.46,0000.69,0000.44,0000.89,0000.31,-000.08,0000.47,0000.22,0000.43,18.3,24.6,02.7,01.8,0670.2,31.1
2021-06-22T01:34:00Z,00000200,00000000,0001.79,0000.63,0000.52,0000.82,0000.26,0000.19,0000.58,0000.81,0000.23,18.3,24.7,02.6,01.8,0670.2,31.1
2021-06-22T01:35:00Z,00000200,00000000,0001.15,0000.67,0000.39,0000.27,0000.09,0000.29,0000.61,0000.58,0000.65,18.3,24.7,02.6,01.7,0670.2,31.1
2021-06-22T01:36:00Z,00000200,00000000,0001.60,0000.68,0000.15,0000.16,-000.05,0000.29,0000.50,0000.16,0000.39,18.3,24.7,02.6,01.8,0670.2,31.1
2021-06-22T01:37:00Z,00000200,00000000,0000.74,0000.52,0000.59,0000.39,0000.22,0000.14,0000.69,0000.59,0000.27,18.2,24.7,02.7,01.8,0670.2,31.1
2021-06-22T01:38:00Z,00000200,00000000,0001.84,0000.81,0000.54,0000.78,0000.08,0000.50,0000.18,0000.33,0000.27,18.2,24.6,02.7,01.8,0670.2,31.0
2021-06-22T01:39:00Z,00000200,00000000,0000.75,0000.36,0000.39,0000.00,0000.22,0000.37,0000.56,0000.43,0000.45,18.1,24.6,02.6,01.8,0670.2,31.0
2021-06-22T01:40:00Z,00000200,00000000,0000.96,0000.66,0000.61,0000.34,0000.28,0000.22,0000.32,0000.68,0000.50,18.1,24.5,02.6,01.8,0670.2,31.0
2021-06-22T01:41:00Z,00000200,00000000,0001.66,0000.98,0000.32,0000.64,0000.21,0000.38,0000.43,0000.21,0000.31,18.0,24.5,02.6,01.7,0670.3,31.0
2021-06-22T01:42:00Z,00000200,00000000,0001.07,0000.88,0000.42,0000.77,0000.10,0000.22,0000.36,0000.54,0000.28,18.0,24.5,02.6,01.8,0670.3,31.0
2021-06-22T01:43:00Z,00000200,00000000,0001.04,0000.73,0000.76,0000.28,0000.46,0000.30,0000.97,0000.04,0000.12,17.9,24.5,02.6,01.7,0670.3,31.0
2021-06-22T01:44:00Z,00000200,00000000,0001.34,0000.53,0000.26,-000.14,-000.11,0000.04,0000.38,0000.46,0000.56,17.9,24.4,02.7,01.8,0670.3,31.0
2021-06-22T01:45:00Z,00000200,00000000,0001.25,0000.77,0000.59,0000.90,0000.03,0000.48,0000.56,0000.65,0000.44,18.0,24.5,02.6,01.8,0670.3,31.0
2021-06-22T01:46:00Z,00000200,00000000,0000.46,0000.23,0000.54,0000.99,0000.15,0000.27,0000.12,0000.65,0000.52,18.1,24.5,02.7,01.8,0670.3,31.0
2021-06-22T01:47:00Z,00000200,00000000,0001.21,0000.67,0000.31,-000.19,0000.46,0000.26,0000.68,0000.33,0000.32,18.2,24.5,02.5,01.7,0670.3,31.1
2021-06-22T01:48:00Z,00000200,00000000,0001.10,0000.83,0000.41,0000.57,0000.35,0000.24,0000.27,0000.26,0000.31,18.3,24.6,02.5,01.7,0670.3,31.1
2021-06-22T01:49:00Z,00000200,00000000,0001.85,0000.86,0000.43,0000.06,0000.29,0000.38,0000.32,0000.79,0000.17,18.3,24.6,02.4,01.6,0670.4,31.1
2021-06-22T01:50:00Z,00000200,00000000,0001.75,0000.62,0000.45,0000.49,0000.05,0000.25,0000.32,-000.06,0000.39,18.3,24.7,02.4,01.6,0670.4,31.1
2021-06-22T01:51:00Z,00000200,00000000,0000.90,0000.59,0000.26,0000.39,0000.03,0000.26,0000.61,0000.36,0000.18,18.3,24.7,02.4,01.6,0670.4,31.1
2021-06-22T01:52:00Z,00000200,00000000,0002.31,0000.62,0000.34,0000.32,0000.18,0000.04,0000.94,0000.66,0000.62,18.2,24.6,02.4,01.6,0670.4,31.1
2021-06-22T01:53:00Z,00000200,00000000,0001.20,0000.77,0000.37,0000.20,0000.03,0000.10,0000.08,0000.28,0000.20,18.2,24.6,02.4,01.6,0670.4,31.1
2021-06-22T01:54:00Z,00000200,00000000,0001.81,0001.04,0000.36,0000.27,0000.40,0000.10,0000.54,0000.81,0000.39,18.1,24.6,02.3,01.6,0670.4,31.0
2021-06-22T01:55:00Z,00000200,00000000,0001.29,0000.51,0000.26,0000.42,0000.33,0000.20,0000.65,0000.35,0000.68,18.1,24.5,02.2,01.5,0670.4,31.0
2021-06-22T01:56:00Z,00000200,00000000,0001.37,0000.53,0000.66,0000.60,0000.16,0000.49,0000.55,0000.89,0000.39,18.0,24.5,02.4,01.6,0670.4,31.0
2021-06-22T01:57:00Z,00000200,40000000,,,,,,,0001.25,0000.61,0000.79,18.0,24.6,01.9,01.3,0670.4,31.0
2021-06-22T01:58:00Z,00000200,60000000,,,,,,,-000.62,-000.16,-000.30,17.7,24.7,02.4,01.6,0669.4,31.0
2021-06-22T01:59:00Z,00000200,20000000,,,,,,,0000.07,0000.26,0000.09,17.7,24.8,02.3,01.5,0669.4,31.0
